STARLINK-11428 [DTC]

Last updated on Thu Jan 23 2025 00:02:04 GMT+0000 (Coordinated Universal Time)

1 62417U 24249J 25022.47098849 .00012015 00000+0 71756-4 0 9999 2 62417 42.9979 127.5173 0001514 262.9797 97.0901 15.77872213 4790
UTC large
Height (km)
Speed (km/s)
/
Latitude / Longitude
Inclination (degrees)
Orbital Period (minutes)
Azimuth
Elevation
Range (km)
Doppler Factor

Next 0 passes for location: London (51.5072 / 0.1276)

Sorry there are no passes over London.